This is the latest recevied weather packets stored in our database for station/object KB1RMA-4. If no packets are shown the sender has not sent any weather packets the latest 10 day(s).
| Time | Temp. | Humidity | Pressure | Rain* | Wind** | Luminosity | Snow |
|---|---|---|---|---|---|---|---|
| 1788011326 | 20° C | 58% | 1022.9 hPa | 0 mm | - | 101 W/m² | - |
| 1788011025 | 20° C | 57% | 1023 hPa | 0 mm | - | 62 W/m² | - |
| 1788010721 | 20° C | 57% | 1022.9 hPa | 0 mm | - | 65 W/m² | - |
| 1788010418 | 19.44° C | 59% | 1022.9 hPa | 0 mm | - | 89 W/m² | - |
| 1788010113 | 19.44° C | 58% | 1022.7 hPa | 0 mm | - | 300 W/m² | - |
| 1788009808 | 18.89° C | 59% | 1022.8 hPa | 0 mm | - | 73 W/m² | - |
| 1788009507 | 18.89° C | 60% | 1023 hPa | 0 mm | - | 58 W/m² | - |
| 1788009202 | 18.89° C | 62% | 1022.8 hPa | 0 mm | - | 55 W/m² | - |
| 1788008897 | 18.89° C | 62% | 1022.7 hPa | 0 mm | - | 54 W/m² | - |
| 1788008592 | 18.33° C | 63% | 1022.7 hPa | 0 mm | - | 53 W/m² | - |
| 1788008290 | 18.33° C | 63% | 1022.6 hPa | 0 mm | - | 52 W/m² | - |
| 1788007988 | 18.33° C | 63% | 1022.6 hPa | 0 mm | - | 52 W/m² | - |
| 1788007686 | 17.78° C | 65% | 1022.6 hPa | 0 mm | - | 51 W/m² | - |
| 1788007382 | 18.33° C | 64% | 1022.6 hPa | 0 mm | - | 53 W/m² | - |
| 1788007082 | 17.78° C | 65% | 1022.4 hPa | 0 mm | - | 60 W/m² | - |
| 1788006780 | 17.78° C | 64% | 1022.5 hPa | 0 mm | - | 72 W/m² | - |
| 1788006475 | 17.78° C | 65% | 1022.5 hPa | 0 mm | - | 71 W/m² | - |
| 1788006170 | 17.78° C | 66% | 1022.3 hPa | 0 mm | - | 85 W/m² | - |
| 1788005869 | 17.22° C | 66% | 1022.4 hPa | 0 mm | - | 72 W/m² | - |
| 1788005564 | 17.22° C | 66% | 1022.3 hPa | 0 mm | - | 57 W/m² | - |
| 1788005263 | 17.22° C | 66% | 1022.2 hPa | 0 mm | - | 52 W/m² | - |
| 1788004962 | 17.22° C | 66% | 1022.3 hPa | 0 mm | - | 44 W/m² | - |
| 1788004661 | 16.67° C | 66% | 1022.1 hPa | 0 mm | - | 43 W/m² | - |
| 1788004357 | 16.67° C | 67% | 1022.3 hPa | 0 mm | - | 42 W/m² | - |
| 1788004056 | 16.67° C | 67% | 1022.1 hPa | 0 mm | - | 42 W/m² | - |
* Rain latest hour (hover to see other rain measurements)
** Current wind speed in m/s (hover to see current wind gust speed)